The Dalles, WA

2:58 PM PDT on September 19, 2019 (GMT -0700)
Columbia Gorge Regional-The Dalles

Weather History for KDLS - July, 2019

Change the Weather History Date:

Saturday, July 20, 2019

  Actual Average Record
Temperature  
Mean Temperature 72 °F -  
Max Temperature 90 °F 90 °F 106 °F (1985)
Min Temperature 54 °F 61 °F 51 °F (1950)
Cooling Degree Days 6    
Growing Degree Days 22 (Base 50)    
Moisture  
Dew Point 42 °F    
Average Humidity 39    
Maximum Humidity 72    
Minimum Humidity 15    
Precipitation  
Precipitation 0.00 in - - ()
Sea Level Pressure  
Sea Level Pressure 30.00 in    
Wind  
Wind Speed 7 mph (NNW)    
Max Wind Speed 13 mph    
Max Gust Speed 21 mph    
Visibility 10 miles    
Events      
Averages and records for this station are not official NWS values.
T = Trace of Precipitation, MM = Missing Value Source: NWS Daily Summary

Daily Weather History Graph

Daily Weather History Graph

Search for Another Location

Airport or City:

Astronomy

Jul. 20, 2019 Rise Set
Actual Time 5:34 AM PDT 8:46 PM PDT
Civil Twilight 4:58 AM PDT 9:22 PM PDT
Nautical Twilight 4:12 AM PDT 10:08 PM PDT
Astronomical Twilight 3:14 AM PDT 11:05 PM PDT
Moon 11:06 PM PDT (7/20) 9:11 AM PDT (7/20)
Length of Visible Light 16h 23m
Length of Day
15h 11m
Waning Gibbous, 86% of the Moon is Illuminated
Jul 20
Waning Gibbous
Jul 24
Last Quarter
Jul 31
New
Aug 7
First Quarter
Aug 15
Full

Hourly Weather History & Observations

Time (PDT) Temp. Dew Point Humidity Pressure Visibility Wind Dir Wind Speed Gust Speed Precip Events Conditions
12:53 AM 64.0 °F 46.0 °F 52% 30.00 in 10.0 mi NW 11.5 mph - N/A   Clear
1:53 AM 63.0 °F 45.0 °F 52% 30.01 in 10.0 mi NW 12.7 mph 20.7 mph N/A   Clear
2:53 AM 61.0 °F 46.0 °F 58% 30.02 in 10.0 mi NW 12.7 mph - N/A   Clear
3:53 AM 55.9 °F 43.0 °F 62% 30.02 in 10.0 mi Calm Calm - N/A   Clear
4:53 AM 54.0 °F 43.0 °F 66% 30.04 in 10.0 mi WSW 4.6 mph - N/A   Clear
5:53 AM 55.0 °F 46.0 °F 72% 30.05 in 10.0 mi NW 8.1 mph - N/A   Clear
6:53 AM 57.0 °F 46.0 °F 67% 30.06 in 10.0 mi NW 6.9 mph - N/A   Clear
7:53 AM 60.1 °F 46.9 °F 62% 30.08 in 10.0 mi West 4.6 mph - N/A   Clear
8:53 AM 63.0 °F 46.0 °F 54% 30.08 in 10.0 mi NNW 8.1 mph - N/A   Clear
9:53 AM 68.0 °F 46.9 °F 47% 30.07 in 10.0 mi NW 3.5 mph - N/A   Clear
10:53 AM 72.0 °F 46.9 °F 41% 30.06 in 10.0 mi Calm Calm - N/A   Clear
11:53 AM 77.0 °F 46.0 °F 33% 30.04 in 10.0 mi WSW 4.6 mph - N/A   Clear
12:53 PM 82.0 °F 45.0 °F 27% 30.01 in 10.0 mi Variable 5.8 mph - N/A   Clear
1:53 PM 86.0 °F 39.0 °F 19% 29.99 in 10.0 mi Variable 3.5 mph - N/A   Clear
2:53 PM 87.1 °F 37.0 °F 17% 29.97 in 10.0 mi East 9.2 mph - N/A   Clear
3:53 PM 89.1 °F 37.0 °F 16% 29.96 in 10.0 mi East 9.2 mph 18.4 mph N/A   Clear
4:53 PM 88.0 °F 34.0 °F 15% 29.94 in 10.0 mi ESE 5.8 mph - N/A   Clear
5:53 PM 89.1 °F 35.1 °F 15% 29.93 in 10.0 mi ENE 8.1 mph - N/A   Clear
6:53 PM 87.1 °F 34.0 °F 15% 29.92 in 10.0 mi East 8.1 mph - N/A   Clear
7:53 PM 82.9 °F 35.1 °F 18% 29.93 in 10.0 mi ESE 6.9 mph - N/A   Clear
8:53 PM 77.0 °F 37.9 °F 24% 29.94 in 10.0 mi East 5.8 mph - N/A   Clear
9:53 PM 73.0 °F 41.0 °F 31% 29.95 in 10.0 mi Calm Calm - N/A   Clear
10:53 PM 66.0 °F 37.9 °F 36% 29.96 in 10.0 mi SW 6.9 mph - N/A   Clear
11:53 PM 63.0 °F 37.9 °F 40% 29.97 in 10.0 mi Calm Calm - N/A   Clear